Simultaneous Nadir Overpasses (SNOs) Predictions

Prediction of SNOs between GOES-16 and METOP-B Satellite Orbit:

Table of predicted SNOs for the next 14.0 days since TLE Epoch: 9/21/2024
Index Date Time (GOES-16) GOES-16 Lat,Lon METOP-B Lat,Lon Distance(km) Time Diff (sec)
1 09/22/2024 02:21:41 0.06, -75.19 -0.11, -76.09 100.95 80
2 09/23/2024 02:03:40 0.05, -75.20 0.95, -71.08 468.48 80
3 09/24/2024 14:19:50 -0.05, -75.22 0.02, -75.66 49.90 80
4 09/27/2024 02:18:07 0.05, -75.22 0.03, -75.26 4.59 80
5 09/29/2024 14:18:55 -0.05, -75.27 -0.16, -74.84 49.28 80
6 10/01/2024 02:35:13 0.05, -75.28 -0.90, -79.43 473.76 80
7 10/02/2024 02:17:12 0.05, -75.30 0.25, -74.45 97.44 80
8 10/03/2024 14:36:02 -0.05, -75.34 0.74, -79.02 417.87 80
9 10/04/2024 14:12:40 -0.04, -75.37 -0.36, -74.02 153.61 80
